STARLINK-5868, 56483

Orbit data source: Space-Track

STARLINK-5868, 56483 is a payload satellite owned by SpaceX/Seattle (US) in LEO that was launched on Wed, 10 May 2023 UTC via an FALCON 9 launch vehicle from the Air Force Western Test Range (AFWTR). Payload-class satellites include a variety of spacecraft equipped with specific instruments for various scientific and technological missions. These include communications satellites like Starlink; space stations such as the ISS; scientific satellites like the Hubble; Earth observation satellites from companies like Planet Labs, Umbra, and HawkEye 360; GPS; miniature CubeSats for education and research; and military/defense satellites.

Loading next visibility...
Identifier
56483, 2023-064AM
Orbit
LEO
Country
Flag of USUS
Related business
Manufacturer
SpaceX/Seattle
Mission
Operational Commercial Communications
Bus & Motor
STARLINK, Unknown motor
Mass
305 kg wet, ~290 kg dry
Launch date (UTC)
2023-05-10 (3 years ago)
Launch vehicle
FALCON 9
Launch site
Air Force Western Test Range (AFWTR)
Object type
Payload
Rocket body
Debris
Shape & HBR
Box + 1 Pan, 10.1 m
Radar Cross Section
11.087 m², Large (>1 m²)

Expand to show TLE details & history
Last TLE update: 2 days ago

TLE from 2 days ago
0 STARLINK-5868
1 56483U 23064AM  26171.45349155  .00000227  00000-0  26810-4 0  9996
2 56483  69.9992 225.2898 0003529 272.7039  87.3716 14.98329241171135
Epoch: 2026-06-20T10:53Z
TLE epoch observation values (Epoch: 2026-06-20T10:53:01.669Z)
Latitude
-0.00006°
Longitude
153.36493°
Altitude
574.37 km
Speed
7.574 km/s
True Right ascension
15h 01m 09s
True Declination
0° 00' 00"
Sunlit
Object was in full shadow at epoch
Visualization orbit readout
Latitude
Unknown
Longitude
Unknown
Altitude
Unknown
Speed
Unknown
Apparent Right ascension
Unknown
Apparent Declination
Unknown
Sunlit
N/A
Visualization observer readout
Local Sidereal Time
21:29:59
Azimuth
Unknown
Elevation
Unknown
Doppler factor
Unknown
Orbital elements
Apogee altitude
572.459 km
Perigee altitude
567.555 km
Semi-major axis
6,948.144 km
Eccentricity
0.00035
Inclination
69.9992°
RAAN
225.2898°
Arg. of periapsis
272.7039°
True anomaly
87.412°
Mean anomaly
87.3716°
Eccentric anomaly
87.3918°
Mean motion
3.74749 °/min
Orbital period
96.06 mins
BSTAR
0.00002681
Loading maneuver chart data...
Computing Atmospheric mass density...
Loading historical data...
Loading historical data...
Loading historical data...
Loading historical data...
Loading historical data...
Loading historical data...
Loading historical data...

Documentation

Showing up to 5 results
|